This is the latest recevied weather packets stored in our database for station/object N4MGC. If no packets are shown the sender has not sent any weather packets the latest 10 day(s).
| Time | Temp. | Humidity | Pressure | Rain* | Wind** | Luminosity | Snow |
|---|---|---|---|---|---|---|---|
| 1777151767 | 26.11° C | 66% | 1008 hPa | 0 mm | - | 106 W/m² | - |
| 1777151464 | 26.67° C | 65% | 1007.8 hPa | 0 mm | - | 141 W/m² | - |
| 1777151160 | 27.22° C | 67% | 1008 hPa | 0 mm | - | 202 W/m² | - |
| 1777150860 | 26.67° C | 66% | 1008 hPa | 0 mm | - | 531 W/m² | - |
| 1777150555 | 26.67° C | 66% | 1007.8 hPa | 0 mm | - | 196 W/m² | - |
| 1777150250 | 28.33° C | 64% | 1008 hPa | 0 mm | - | 173 W/m² | - |
| 1777149950 | 28.33° C | 65% | 1008.2 hPa | 0 mm | - | 406 W/m² | - |
| 1777149644 | 27.78° C | 63% | 1008.2 hPa | 0 mm | - | 182 W/m² | - |
| 1777149342 | 27.78° C | 62% | 1008.1 hPa | 0 mm | - | 692 W/m² | - |
| 1777149037 | 27.22° C | 64% | 1008.3 hPa | 0 mm | - | 640 W/m² | - |
| 1777148733 | 26.67° C | 64% | 1008.2 hPa | 0 mm | - | 693 W/m² | - |
| 1777148429 | 27.22° C | 65% | 1008.2 hPa | 0 mm | - | 266 W/m² | - |
| 1777148125 | 27.78° C | 62% | 1008.3 hPa | 0 mm | - | 673 W/m² | - |
| 1777147821 | 27.22° C | 63% | 1008.5 hPa | 0 mm | - | 698 W/m² | - |
| 1777147517 | 27.22° C | 66% | 1008.7 hPa | 0 mm | - | 722 W/m² | - |
| 1777147213 | 26.67° C | 66% | 1008.8 hPa | 0 mm | - | 673 W/m² | - |
| 1777146909 | 26.67° C | 69% | 1008.7 hPa | 0 mm | - | 164 W/m² | - |
| 1777146605 | 26.67° C | 64% | 1008.7 hPa | 0 mm | - | 265 W/m² | - |
| 1777146300 | 27.22° C | 63% | 1008.6 hPa | 0 mm | - | 219 W/m² | - |
| 1777145997 | 27.22° C | 62% | 1008.8 hPa | 0 mm | - | 629 W/m² | - |
| 1777145694 | 27.78° C | 60% | 1008.8 hPa | 0 mm | - | 727 W/m² | - |
| 1777145389 | 27.78° C | 64% | 1008.7 hPa | 0 mm | - | 718 W/m² | - |
| 1777145084 | 27.78° C | 62% | 1008.8 hPa | 0 mm | - | 705 W/m² | - |
| 1777144779 | 27.22° C | 60% | 1009 hPa | 0 mm | - | 743 W/m² | - |
| 1777144478 | 27.22° C | 65% | 1009.2 hPa | 0 mm | - | 740 W/m² | - |
* Rain latest hour (hover to see other rain measurements)
** Current wind speed in m/s (hover to see current wind gust speed)